This is the latest recevied weather packets stored in our database for station/object KC1TEM-13. If no packets are shown the sender has not sent any weather packets the latest 10 day(s).
| Time | Temp. | Humidity | Pressure | Rain* | Wind** | Luminosity | Snow |
|---|---|---|---|---|---|---|---|
| 1777313537 | 20° C | 32% | 1025.1 hPa | 0 mm | - | 794 W/m² | - |
| 1777313235 | 20° C | 31% | 1025.2 hPa | 0 mm | - | 802 W/m² | - |
| 1777312931 | 20° C | 32% | 1025.2 hPa | 0 mm | - | 812 W/m² | - |
| 1777312627 | 20° C | 32% | 1025.2 hPa | 0 mm | - | 817 W/m² | - |
| 1777312325 | 20° C | 32% | 1025.4 hPa | 0 mm | - | 825 W/m² | - |
| 1777312023 | 19.44° C | 32% | 1025.2 hPa | 0 mm | - | 829 W/m² | - |
| 1777311718 | 19.44° C | 31% | 1025.2 hPa | 0 mm | - | 836 W/m² | - |
| 1777311417 | 20° C | 31% | 1025.2 hPa | 0 mm | - | 843 W/m² | - |
| 1777311114 | 19.44° C | 30% | 1025.4 hPa | 0 mm | - | 847 W/m² | - |
| 1777310812 | 18.89° C | 32% | 1025.4 hPa | 0 mm | - | 852 W/m² | - |
| 1777310509 | 19.44° C | 31% | 1025.4 hPa | 0 mm | - | 856 W/m² | - |
| 1777310206 | 18.89° C | 31% | 1025.3 hPa | 0 mm | - | 862 W/m² | - |
| 1777309903 | 19.44° C | 31% | 1025.4 hPa | 0 mm | - | 865 W/m² | - |
| 1777309601 | 18.89° C | 32% | 1025.6 hPa | 0 mm | - | 868 W/m² | - |
| 1777309298 | 18.89° C | 33% | 1025.3 hPa | 0 mm | - | 871 W/m² | - |
| 1777308996 | 18.89° C | 31% | 1025.6 hPa | 0 mm | - | 876 W/m² | - |
| 1777308692 | 18.89° C | 30% | 1025.9 hPa | 0 mm | - | 877 W/m² | - |
| 1777308387 | 19.44° C | 29% | 1025.7 hPa | 0 mm | - | 880 W/m² | - |
| 1777308083 | 19.44° C | 32% | 1025.7 hPa | 0 mm | - | 882 W/m² | - |
| 1777307781 | 19.44° C | 31% | 1025.6 hPa | 0 mm | - | 882 W/m² | - |
| 1777307478 | 19.44° C | 33% | 1025.8 hPa | 0 mm | - | 884 W/m² | - |
| 1777307175 | 19.44° C | 30% | 1025.8 hPa | 0 mm | - | 883 W/m² | - |
| 1777306872 | 18.89° C | 32% | 1025.6 hPa | 0 mm | - | 884 W/m² | - |
| 1777306570 | 18.89° C | 34% | 1025.6 hPa | 0 mm | - | 883 W/m² | - |
| 1777306270 | 19.44° C | 32% | 1025.6 hPa | 0 mm | - | 881 W/m² | - |
* Rain latest hour (hover to see other rain measurements)
** Current wind speed in m/s (hover to see current wind gust speed)